Simultaneous Nadir Overpasses (SNOs) Predictions

Prediction of SNOs between FY3D and TERRA Satellite Orbit:

Table of predicted SNOs for the next 14.0 days since TLE Epoch: 3/9/2024
Index Date (FY3D) Time (FY3D) Lat,Lon (FY3D) SZA (FY3D ) Date (TERRA) Time (TERRA) Lat,Lon (TERRA) SZA (TERRA ) Distance(km) Time Diff (sec)
1 03/09/2024 07:46:11 -75.12,-116.48 100.69 03/09/2024 07:47:12 -75.14,-116.53 100.68 2.47 61
2 03/09/2024 08:36:56 75.06, 51.01 79.24 03/09/2024 08:36:34 75.05, 50.90 79.22 3.71 22
3 03/11/2024 19:50:00 75.11,-117.34 78.32 03/11/2024 19:50:20 75.13,-117.38 78.33 2.42 20
4 03/11/2024 20:40:44 -75.08, 50.06 101.74 03/11/2024 20:39:44 -75.07, 50.12 101.74 2.02 60
5 03/14/2024 07:03:04 75.16, 74.28 77.40 03/14/2024 07:04:06 75.18, 74.29 77.41 2.20 62
6 03/14/2024 07:53:48 -75.13,-118.32 102.65 03/14/2024 07:53:30 -75.12,-118.22 102.67 3.13 18
7 03/16/2024 19:06:51 -75.15, 73.42 103.61 03/16/2024 19:07:16 -75.15, 73.37 103.62 1.42 25
8 03/16/2024 19:57:36 75.09,-119.08 76.31 03/16/2024 19:56:37 75.11,-119.07 76.34 2.53 59
9 03/19/2024 06:19:54 -75.22, -95.01 104.52 03/19/2024 06:21:00 -75.20, -94.98 104.55 2.82 66
10 03/19/2024 07:10:39 75.16, 72.49 75.41 03/19/2024 07:10:21 75.16, 72.59 75.41 2.96 18
11 03/21/2024 18:23:42 75.19, -95.82 74.46 03/21/2024 18:24:06 75.19, -95.81 74.46 0.15 24



Historial Predications of SNOs between FY3D and TERRA
